Weather History for Sanford, NC

Change the Weather History Date:

Wednesday, December 12, 2012

  Actual Average (KRDU) Record (KRDU)
Temperature  
Mean Temperature 44 °F 44 °F  
Max Temperature 49 °F 54 °F 79 °F (2007)
Min Temperature 39 °F 34 °F 10 °F (1957)
Degree Days  
Heating Degree Days 21 21  
Month to date heating degree days 233  
Since 1 July heating degree days 814  
Cooling Degree Days 0 0  
Month to date cooling degree days 0  
Year to date cooling degree days 1728  
Moisture  
Dew Point 35 °F    
Average Humidity 68    
Maximum Humidity 93    
Minimum Humidity 52    
Precipitation  
Precipitation 0.20 in 0.10 in 1.07 in (1983)
Month to date precipitation 1.20  
Year to date precipitation 41.47  
Snow  
Snow 0.00 in 0.00 in 7.00 in (1917)
Month to date snowfall 0.1  
Since 1 July snowfall 0.2  
Snow Depth -    
Sea Level Pressure  
Sea Level Pressure 30.25 in    
Wind  
Wind Speed 7 mph (NNE)    
Max Wind Speed 15 mph    
Max Gust Speed 20 mph    
Visibility 10 miles    
Events Rain    
T = Trace of Precipitation, MM = Missing Value Source: NWS Daily Summary

Daily Weather History Graph

Daily Weather History Graph

Search for Another Location

Airport:

Trip Planner

Search our weather history database for the weather conditions in past years. The results will help you decide how hot, cold, wet, or windy it might be!

Date:

Astronomy

Dec. 12, 2012 Rise Set
Actual Time 7:16 AM EST 5:03 PM EST
Civil Twilight 6:48 AM EST 5:32 PM EST
Nautical Twilight 6:16 AM EST 6:04 PM EST
Astronomical Twilight 5:45 AM EST 6:35 PM EST
Moon 6:19 AM EST (12/12) 4:38 PM EST (12/12)
Length of Visible Light 10h 43m
Length of Day
9h 47m
Waning Crescent, 1% of the Moon is Illuminated
Dec 12
Waning Crescent
Dec 13
New
Dec 20
First Quarter
Dec 28
Full
Jan 4
Last Quarter

Hourly Weather History & Observations

Time (EST) Temp. Windchill Dew Point Humidity Pressure Visibility Wind Dir Wind Speed Gust Speed Precip Events Conditions
12:15 AM 49.5 °F - 34.0 °F 55% 30.14 in 10.0 mi North 4.6 mph - N/A   Overcast
12:35 AM 49.5 °F - 34.0 °F 55% 30.14 in 10.0 mi North 6.9 mph - N/A   Overcast
12:55 AM 49.1 °F - 34.5 °F 57% 30.15 in 10.0 mi North 6.9 mph - N/A   Overcast
1:15 AM 49.1 °F - 34.2 °F 56% 30.14 in 10.0 mi North 8.1 mph - N/A   Overcast
1:35 AM 48.9 °F - 34.3 °F 57% 30.15 in 10.0 mi NNE 6.9 mph - N/A   Overcast
1:55 AM 48.6 °F - 34.2 °F 58% 30.15 in 10.0 mi North 8.1 mph - N/A   Overcast
2:15 AM 48.4 °F - 34.0 °F 58% 30.17 in 10.0 mi North 6.9 mph - N/A   Overcast
2:55 AM 48.0 °F - 34.0 °F 58% 30.17 in 10.0 mi NNE 6.9 mph - N/A   Overcast
3:15 AM 48.2 °F - 34.5 °F 59% 30.17 in 10.0 mi NNE 4.6 mph - N/A   Overcast
3:35 AM 47.8 °F - 35.1 °F 61% 30.16 in 10.0 mi North 6.9 mph - N/A   Overcast
3:55 AM 47.3 °F - 35.2 °F 63% 30.17 in 10.0 mi NNE 3.5 mph - N/A   Overcast
4:15 AM 47.7 °F - 36.0 °F 64% 30.17 in 10.0 mi North 4.6 mph - N/A   Overcast
4:55 AM 48.2 °F - 36.9 °F 65% 30.19 in 10.0 mi NNE 3.5 mph - N/A   Overcast
5:15 AM 48.4 °F - 37.2 °F 65% 30.20 in 10.0 mi NNE 5.8 mph - N/A Rain Light Rain
5:35 AM 47.7 °F - 38.3 °F 70% 30.19 in 10.0 mi NNE 4.6 mph - N/A   Overcast
5:55 AM 47.8 °F - 37.9 °F 69% 30.21 in 10.0 mi NNE 4.6 mph - N/A   Overcast
6:15 AM 48.2 °F - 37.4 °F 66% 30.22 in 10.0 mi NNE 4.6 mph - N/A   Light Drizzle
6:55 AM 48.0 °F - 36.3 °F 64% 30.24 in 10.0 mi NE 6.9 mph - N/A   Overcast
7:15 AM 47.8 °F - 36.0 °F 63% 30.23 in 10.0 mi NE 9.2 mph - N/A   Overcast
7:35 AM 47.8 °F - 35.8 °F 63% 30.22 in 10.0 mi NNE 9.2 mph - N/A   Overcast
7:55 AM 47.8 °F - 35.4 °F 62% 30.24 in 10.0 mi NE 9.2 mph - N/A   Overcast
8:15 AM 47.7 °F - 35.2 °F 62% 30.27 in 10.0 mi NNE 10.4 mph - N/A   Overcast
8:35 AM 47.3 °F - 34.5 °F 61% 30.26 in 10.0 mi NNE 8.1 mph - N/A   Overcast
8:55 AM 47.3 °F - 34.3 °F 61% 30.28 in 10.0 mi North 9.2 mph - N/A   Overcast
9:15 AM 46.9 °F - 33.8 °F 60% 30.28 in 10.0 mi NNE 6.9 mph 10.4 mph N/A   Overcast
9:35 AM 46.6 °F - 33.6 °F 61% 30.29 in 10.0 mi NNE 10.4 mph - N/A   Overcast
9:55 AM 46.6 °F - 33.8 °F 61% 30.30 in 10.0 mi NNE 8.1 mph - N/A   Overcast
10:15 AM 46.6 °F - 33.8 °F 61% 30.30 in 10.0 mi North 10.4 mph - N/A   Overcast
10:35 AM 47.1 °F - 33.4 °F 59% 30.29 in 10.0 mi NNE 12.7 mph - N/A   Overcast
10:55 AM 46.6 °F - 33.1 °F 59% 30.29 in 10.0 mi NNE 8.1 mph 16.1 mph N/A   Overcast
11:15 AM 46.6 °F - 33.1 °F 59% 30.30 in 10.0 mi NNE 10.4 mph - N/A   Light Drizzle
11:35 AM 46.4 °F 41.1 °F 32.4 °F 58% 30.29 in 10.0 mi NNE 11.5 mph - N/A   Overcast
11:55 AM 46.4 °F 40.4 °F 32.0 °F 57% 30.27 in 10.0 mi NNE 13.8 mph 19.6 mph N/A   Overcast
12:15 PM 46.6 °F - 31.8 °F 56% 30.28 in 10.0 mi NE 12.7 mph 19.6 mph N/A   Overcast
12:35 PM 46.6 °F - 31.8 °F 56% 30.29 in 10.0 mi NNE 9.2 mph - N/A   Overcast
12:55 PM 47.1 °F - 31.6 °F 55% 30.27 in 10.0 mi North 12.7 mph 17.3 mph N/A   Overcast
1:15 PM 46.6 °F - 31.3 °F 55% 30.26 in 10.0 mi North 15.0 mph 18.4 mph N/A   Overcast
1:55 PM 46.4 °F 42.4 °F 30.9 °F 55% 30.26 in 10.0 mi NNE 8.1 mph - N/A   Overcast
2:15 PM 46.8 °F - 30.6 °F 53% 30.26 in 10.0 mi NNE 11.5 mph 16.1 mph N/A   Overcast
2:35 PM 46.9 °F - 30.2 °F 52% 30.26 in 10.0 mi NNE 11.5 mph - N/A   Overcast
2:55 PM 46.9 °F - 30.4 °F 53% 30.26 in 10.0 mi NNE 12.7 mph - N/A   Overcast
3:15 PM 46.9 °F - 30.4 °F 53% 30.26 in 10.0 mi NNE 10.4 mph - N/A   Overcast
3:35 PM 46.9 °F - 30.4 °F 53% 30.28 in 10.0 mi North 11.5 mph - N/A   Overcast
3:55 PM 46.0 °F 41.4 °F 32.0 °F 58% 30.28 in 10.0 mi NNE 9.2 mph 17.3 mph N/A Rain Light Rain
4:15 PM 44.2 °F 41.8 °F 34.5 °F 69% 30.28 in 10.0 mi ENE 4.6 mph - N/A Rain Rain
4:35 PM 42.6 °F 39.9 °F 36.5 °F 79% 30.28 in 10.0 mi NNE 4.6 mph - 0.02 in Rain Rain
4:55 PM 41.9 °F 36.9 °F 38.5 °F 88% 30.26 in 10.0 mi NNE 8.1 mph - 0.04 in Rain Rain
5:15 PM 41.4 °F 36.2 °F 38.1 °F 88% 30.27 in 10.0 mi NNE 8.1 mph - 0.01 in Rain Light Rain
5:35 PM 41.9 °F - 38.3 °F 87% 30.30 in 10.0 mi Calm Calm - 0.01 in Rain Light Rain
5:55 PM 41.2 °F 38.2 °F 37.8 °F 88% 30.28 in 10.0 mi NNE 4.6 mph - 0.02 in Rain Rain
6:35 PM 41.0 °F 38.0 °F 38.7 °F 91% 30.28 in 10.0 mi North 4.6 mph - N/A   Overcast
6:55 PM 41.0 °F 37.1 °F 38.7 °F 91% 30.28 in 10.0 mi NNE 5.8 mph - N/A   Light Drizzle
7:15 PM 41.2 °F 37.3 °F 38.5 °F 90% 30.30 in 10.0 mi North 5.8 mph - N/A Rain Rain
7:55 PM 40.6 °F 36.7 °F 37.9 °F 90% 30.33 in 10.0 mi NNE 5.8 mph - 0.03 in Rain Light Rain
8:15 PM 41.0 °F 36.4 °F 38.3 °F 90% 30.32 in 10.0 mi NNE 6.9 mph - N/A Rain Rain
8:55 PM 40.5 °F 33.2 °F 37.4 °F 89% 30.30 in 10.0 mi NNE 12.7 mph 18.4 mph 0.01 in Rain Light Rain
9:15 PM 40.1 °F 34.7 °F 37.2 °F 89% 30.30 in 10.0 mi NNE 8.1 mph - N/A Rain Light Rain
9:55 PM 40.1 °F 33.6 °F 37.4 °F 90% 30.31 in 10.0 mi NNE 10.4 mph - 0.02 in Rain Rain
10:15 PM 39.6 °F 33.5 °F 37.4 °F 92% 30.30 in 10.0 mi NNE 9.2 mph 16.1 mph 0.02 in Rain Rain
10:35 PM 39.4 °F 34.5 °F 37.4 °F 93% 30.28 in 10.0 mi NE 6.9 mph - 0.04 in Rain Light Rain
10:55 PM 39.4 °F 34.5 °F 37.4 °F 93% 30.31 in 7.0 mi North 6.9 mph - 0.05 in Rain Rain
11:15 PM 39.4 °F 33.8 °F 37.4 °F 93% 30.31 in 10.0 mi NNE 8.1 mph - 0.01 in Rain Light Rain
11:55 PM 39.2 °F 32.0 °F 36.9 °F 91% 30.30 in 10.0 mi NNE 11.5 mph - 0.03 in Rain Rain